This is the latest recevied weather packets stored in our database for station/object WE1C. If no packets are shown the sender has not sent any weather packets the latest 1 day(s).
| Time | Temp. | Humidity | Pressure | Rain* | Wind** | Luminosity | Snow |
|---|---|---|---|---|---|---|---|
| 1777999995 | 27.22° C | 38% | 1037 hPa | 0 mm | 1.79 m/s, 195° | 773 W/m² | - |
| 1777999691 | 26.67° C | 39% | 1037.6 hPa | 0 mm | 1.79 m/s, 201° | 786 W/m² | - |
| 1777999388 | 26.11° C | 41% | 1037.5 hPa | 0 mm | 1.34 m/s, 43° | 776 W/m² | - |
| 1777999086 | 26.67° C | 39% | 1037.5 hPa | 0 mm | 0.89 m/s, 170° | 776 W/m² | - |
| 1777998785 | 26.67° C | 40% | 1037.4 hPa | 0 mm | 0.45 m/s, 176° | 780 W/m² | - |
| 1777998483 | 26.67° C | 39% | 1037.7 hPa | 0 mm | 1.79 m/s, 208° | 786 W/m² | - |
| 1777998178 | 26.11° C | 40% | 1037.6 hPa | 0 mm | 0.45 m/s, 247° | 760 W/m² | - |
| 1777997876 | 26.67° C | 43% | 1037.6 hPa | 0 mm | 1.34 m/s, 312° | 739 W/m² | - |
| 1777997573 | 26.11° C | 40% | 1037.8 hPa | 0 mm | 1.34 m/s, 170° | 768 W/m² | - |
| 1777997270 | 26.11° C | 40% | 1037.9 hPa | 0 mm | 0.45 m/s, 209° | 771 W/m² | - |
| 1777996968 | 26.11° C | 40% | 1038.3 hPa | 0 mm | 0.89 m/s, 169° | 780 W/m² | - |
| 1777996664 | 25.56° C | 40% | 1038.2 hPa | 0 mm | 0.45 m/s, 140° | 764 W/m² | - |
| 1777996360 | 25.56° C | 40% | 1038.5 hPa | 0 mm | 0.89 m/s, 127° | 756 W/m² | - |
| 1777996057 | 26.11° C | 41% | 1038.4 hPa | 0 mm | 1.34 m/s, 217° | 761 W/m² | - |
| 1777995753 | 26.11° C | 40% | 1038.7 hPa | 0 mm | 0.45 m/s, 157° | 802 W/m² | - |
| 1777995450 | 25.56° C | 40% | 1038.9 hPa | 0 mm | 0.89 m/s, 217° | 812 W/m² | - |
| 1777995147 | 25.56° C | 41% | 1038.8 hPa | 0 mm | 1.34 m/s, 221° | 830 W/m² | - |
| 1777994844 | 24.44° C | 42% | 1038.7 hPa | 0 mm | 1.79 m/s, 218° | 819 W/m² | - |
| 1777994541 | 24.44° C | 43% | 1038.3 hPa | 0 mm | 0.89 m/s, 206° | 818 W/m² | - |
| 1777994235 | 24.44° C | 43% | 1038.8 hPa | 0 mm | 0.45 m/s, 221° | 845 W/m² | - |
| 1777993933 | 24.44° C | 43% | 1038.7 hPa | 0 mm | 1.34 m/s, 214° | 858 W/m² | - |
| 1777993629 | 24.44° C | 43% | 1038.5 hPa | 0 mm | 0.45 m/s, 175° | 874 W/m² | - |
| 1777993326 | 23.89° C | 45% | 1038.7 hPa | 0 mm | 0.89 m/s, 78° | 889 W/m² | - |
| 1777993026 | 23.33° C | 45% | 1038.7 hPa | 0 mm | 0.45 m/s, 289° | 895 W/m² | - |
| 1777992725 | 23.33° C | 46% | 1038.7 hPa | 0 mm | 1.34 m/s, 126° | 657 W/m² | - |
* Rain latest hour (hover to see other rain measurements)
** Current wind speed in m/s (hover to see current wind gust speed)